Location: Bucquoy
(50.1391°N, 2.7097°E)
Time: 07:18:46
(UTC+00:00)

AQUA - Pass Details

Date: 06 May 2021
Orbit: 702 x 703 km, 98.2° (Epoch: 22 June)

Event Time Altitude Azimuth Distance (km) Brightness Sun altitude
Rises 02:14:34 0° 12° (NNE) 3,105 8.4 -15.7°
Reaches altitude 10° 02:16:50 10° 9° (N) 2,182 7.3 -15.5°
Maximum altitude 02:21:34 65° 289° (WNW) 778 3.9 -15.0°
Enters shadow 02:24:26 23° 213° (SSW) 1,458 4.8 -14.7°
